Location: Oshawa
(43.9000°N, 78.8670°W)
Time: 14:51:01
(UTC-05:00)

Cosmos 1821 Rocket - Visible Passes

Search period start: 22 December 2014 00:00
Search period end: 01 January 2015 00:00
Orbit: 946 x 1004 km, 82.9° (Epoch: 21 December)

Date Brightness Start Highest point End Pass type
(mag) Time Alt. Az. Time Alt. Az. Time Alt. Az.
22 Dec 6.7 03:38:44 10° NE 03:41:30 13° ENE 03:44:17 10° E visible
22 Dec 4.1 05:21:37 10° N 05:28:01 77° E 05:34:24 10° SSE visible
22 Dec 5.4 07:08:39 10° NW 07:12:37 18° W 07:16:36 10° WSW visible
22 Dec 5.0 17:09:17 10° SE 17:14:00 24° E 17:18:47 10° NNE visible
22 Dec 4.6 18:52:55 10° SSW 18:58:55 55° WNW 19:05:02 10° N visible
23 Dec 6.1 04:02:35 10° NNE 04:07:29 23° ENE 04:12:22 10° ESE visible
23 Dec 4.0 05:47:05 10° NNW 05:53:22 63° W 05:59:39 10° S visible
23 Dec 4.4 17:33:21 10° SSE 17:39:03 42° E 17:44:51 10° NNE visible
23 Dec 5.6 19:19:09 10° SW 19:24:33 31° WNW 19:30:03 10° N visible
24 Dec 5.3 04:27:20 10° N 04:33:15 38° ENE 04:39:08 10° SE visible
24 Dec 4.5 06:12:51 10° NNW 06:18:33 36° W 06:24:15 10° SSW visible
24 Dec 3.9 17:58:09 10° S 18:04:16 75° E 18:10:31 10° NNE visible
24 Dec 6.4 19:46:15 10° WSW 19:50:23 18° WNW 19:54:35 10° NNW visible
25 Dec 6.8 03:10:28 10° NE 03:12:08 11° ENE 03:13:47 10° ENE visible
25 Dec 4.3 04:54:02 19° N 04:58:49 67° E 05:05:09 10° SSE visible
25 Dec 5.2 06:39:05 10° NW 06:43:34 21° W 06:48:02 10° SW visible
25 Dec 4.4 18:23:35 10° SSW 18:29:40 64° W 18:35:54 10° N visible
26 Dec 6.2 03:36:02 17° NE 03:38:10 20° ENE 03:42:39 10° ESE visible
26 Dec 3.9 05:20:48 30° NNW 05:24:13 73° W 05:30:33 10° S visible
26 Dec 5.7 07:07:00 10° WNW 07:08:24 11° WNW 07:09:48 10° W visible
26 Dec 5.4 18:49:38 10° SW 18:55:15 36° WNW 19:01:00 10° N visible
27 Dec 5.4 04:02:49 31° NE 04:03:59 33° ENE 04:09:40 10° SE visible
27 Dec 4.3 05:47:35 34° NW 05:49:26 42° W 05:55:20 10° SSW visible
27 Dec 4.0 17:29:01 10° S 17:35:05 65° E 17:41:18 10° NNE visible
27 Dec 6.2 19:16:27 10° WSW 19:21:02 21° WNW 19:25:42 10° NNW visible
28 Dec 4.5 04:29:35 58° ENE 04:29:36 58° ENE 04:35:52 10° SSE visible
28 Dec 5.0 06:14:21 24° W 06:14:29 24° W 06:19:23 10° SW visible
28 Dec 4.2 17:54:17 10° SSW 18:00:26 74° W 18:06:45 10° N visible
28 Dec 6.7 19:44:45 10° W 19:47:02 12° WNW 19:49:21 10° NW visible
29 Dec 6.6 03:11:33 13° E 03:11:33 13° E 03:12:50 10° ESE visible
29 Dec 4.2 04:56:19 60° S 04:56:19 60° S 05:01:25 10° S visible
29 Dec 5.7 06:41:05 12° W 06:41:05 12° W 06:42:04 10° WSW visible
29 Dec 5.2 18:20:09 10° SW 18:25:59 42° WNW 18:31:55 10° N visible
30 Dec 6.2 03:38:14 18° ESE 03:38:14 18° ESE 03:40:09 10° SE visible
30 Dec 5.0 05:22:59 31° SW 05:22:59 31° SW 05:26:22 10° SSW visible
30 Dec 6.1 18:46:45 10° WSW 18:51:42 25° WNW 18:56:45 10° NNW visible
31 Dec 6.0 04:04:51 19° SE 04:04:51 19° SE 04:06:32 10° SSE visible
31 Dec 5.8 05:49:36 14° SW 05:49:36 14° SW 05:50:38 10° SW visible
31 Dec 4.1 17:25:01 10° S 17:31:14 85° W 17:37:34 10° N visible
31 Dec 6.6 19:14:28 10° W 19:17:39 14° WNW 19:20:52 10° NNW visible
